• Processing (Info)

  • MPEC 2020-U247 : 2020 UJ6

    The following Minor Planet Electronic Circular may be linked-to from your own Web pages, but must not otherwise be redistributed electronically.

    A form allowing access to any MPEC is at the bottom of this page.


    Read MPEC 2020-U246 Read MPEC 2020-U248


    M.P.E.C. 2020-U247                             Issued 2020 October 27, 11:50 UT
    
         The Minor Planet Electronic Circulars contain information on unusual
             minor planets and routine data on comets.  They are published
        on behalf of Division F of the International Astronomical Union by the
              Minor Planet Center, Smithsonian Astrophysical Observatory,
                              Cambridge, MA 02138, U.S.A.
    
                 Prepared using the Tamkin Foundation Computer Network
    
                                  MPC@CFA.HARVARD.EDU
                URL https://www.minorplanetcenter.net/    ISSN 1523-6714
    
                                    2020 UJ6                                 
    
    
    Observations:
         K20U06J  C2020 10 12.40482 06 40 06.57 +32 59 13.7                VEU247G96
         K20U06J  C2020 10 12.41523 06 40 09.03 +32 59 34.2                VEU247G96
         K20U06J  C2020 10 18.58945707 05 37.026+36 18 08.40         21.10GVEU247F52
         K20U06J  C2020 10 18.60989707 05 42.175+36 18 48.23         20.73GVEU247F52
         K20U06J  C2020 10 18.62012807 05 44.804+36 19 08.13         20.56GVEU247F52
         K20U06J* C2020 10 22.44148607 22 36.22 +38 21 57.1          20.75GVEU247G96
         K20U06J  C2020 10 22.44669507 22 37.55 +38 22 07.1          20.83GVEU247G96
         K20U06J  C2020 10 22.45190207 22 38.92 +38 22 17.4          21.52GVEU247G96
         K20U06J  C2020 10 22.45711107 22 40.32 +38 22 27.9          21.76GVEU247G96
         K20U06J KC2020 10 22.50683507 22 53.53 +38 24 03.6          20.72GVEU247I52
         K20U06J KC2020 10 22.51019207 22 54.40 +38 24 10.0          21.08GVEU247I52
         K20U06J KC2020 10 22.51355207 22 55.30 +38 24 16.7          20.67GVEU247I52
         K20U06J KC2020 10 23.38419507 26 53.73 +38 52 01.4          21.34GVEU247I52
         K20U06J KC2020 10 23.38755007 26 54.67 +38 52 07.4          20.87GVEU247I52
         K20U06J KC2020 10 23.39090707 26 55.63 +38 52 14.6          21.06GVEU247I52
         K20U06J KC2020 10 27.38463407 45 41.49 +40 57 52.2          20.28GVEU247I52
         K20U06J KC2020 10 27.38715107 45 42.17 +40 57 57.5          21.51GVEU247I52
         K20U06J KC2020 10 27.38967107 45 42.89 +40 58 01.8          20.82GVEU247I52
         K20U06J KC2020 10 27.39219107 45 43.56 +40 58 08.7          20.86GVEU247I52
    
    Observer details:
    F52 Pan-STARRS 2, Haleakala.  Observers J. Bulger, K. Chambers, T. Dukes, T.
        Lowe, A. Schultz, M. Willman.  Measurers S. Chastel, M. Huber, Y.
        Ramanjooloo, R. Wainscoat, R. Weryk.  1.8-m Ritchey-Chretien + CCD.
    G96 Mt. Lemmon Survey.  Observers T. A. Pruyne, D. Rankin.  Measurers D.
        Rankin, B. Gray, F. C. Shelly, E. J. Christensen, G. A. Farneth, D. C.
        Fuls, A. R. Gibbs, A. D. Grauer, H. Groeller, R. A. Kowalski, S. M.
        Larson, G. J. Leonard, T. A. Pruyne, R. L. Seaman, K. W. Wierzchos.  1.5-m
        reflector + 10K CCD.
    I52 Steward Observatory, Mt. Lemmon Station.  Observers G. J. Leonard, R. A.
        Kowalski.  Measurers E. J. Christensen, G. A. Farneth, D. C. Fuls, A. R.
        Gibbs, A. D. Grauer, H. Groeller, R. A. Kowalski, S. M. Larson, G. J.
        Leonard, T. A. Pruyne, D. Rankin, R. L. Seaman, F. C. Shelly, K. W.
        Wierzchos.  1.0-m reflector + CCD.
    
    Orbital elements:
    2020 UJ6                                                 Earth MOID = 0.3535 AU
    Epoch 2020 Dec. 17.0 TT = JDT 2459200.5                 Veres
    M   7.03270              (2000.0)            P               Q
    n   0.31774104     Peri.   48.34662     +0.09886388     -0.96634831
    a   2.1269331      Node    38.02495     +0.75932026     -0.08098696
    e   0.4060596      Incl.   22.67584     +0.64316303     +0.24415580
    P   3.10           H   19.8           G   0.15           U   7
    Residuals in seconds of arc
    201012 G96  0.2-  0.2-    201022 G96  0.0   0.2-    201023 I52  0.3+  0.3+
    201012 G96  0.2+  0.1+    201022 G96  0.1+  0.2+    201027 I52  0.3+  0.1-
    201018 F52  0.3-  0.2+    201022 I52  0.1+  0.1-    201027 I52  0.1-  0.4+
    201018 F52  0.3-  0.2+    201022 I52  0.2-  0.2-    201027 I52  0.1-  0.1-
    201018 F52  0.4+  0.2+    201022 I52  0.1-  0.1+    201027 I52 (0.6-  2.0+)
    201022 G96  0.8+  0.2-    201023 I52  0.7-  0.2+
    201022 G96  0.1+  0.4-    201023 I52  0.3-  0.4-
    
    Ephemeris:
    2020 UJ6                 a,e,i = 2.13, 0.41, 23                  q = 1.2633
    Date    TT    R. A. (2000) Decl.     Delta      r    Elong.  Phase     V
    2020 09 27    05 44 47.1 +25 11 30   0.8309  1.3829    97.5    45.9    21.8
    ...
    2020 10 12    06 38 30.0 +32 46 20   0.7192  1.3322   100.5    47.4    21.5
    ...
    2020 10 20    07 11 43.6 +37 03 32   0.6733  1.3101   101.7    48.1    21.3
    ...
    2020 10 26    07 39 03.6 +40 14 43   0.6456  1.2961   102.4    48.5    21.2
    2020 10 27    07 43 49.5 +40 45 56   0.6415  1.2940   102.5    48.6    21.2
    2020 10 28    07 48 38.9 +41 16 52   0.6377  1.2919   102.5    48.6    21.2
    ...
    2020 11 03    08 18 48.2 +44 15 06   0.6177  1.2810   103.0    49.0    21.1
    ...
    2020 11 11    09 01 46.6 +47 44 31   0.5996  1.2705   103.4    49.3    21.1
    ...
    2020 11 26    10 25 16.8 +52 17 58   0.5876  1.2633   103.8    49.3    21.0
    
    M. P. C. Staff               (C) Copyright 2020 MPC           M.P.E.C. 2020-U247
    


    Read MPEC 2020-U246 Read MPEC 2020-U248


    MPEC number:

    Enter an MPEC number in one of the following forms:

    • 1997-B01 (the full form)
    • J97B01 (the packed version of the full form)
    • B01 (the abbreviated form)